Regional Weather Roundup
Issued by NWS Charleston, SC

Current Version | Previous Version | Text Only | Print | Product List | Glossary Off
Versions: 1 2 3 4 5 6 7 8 9 10 11 12 13 14 15 16 17 18 19 20 21 22 23 24 25 26 27 28 29 30 31 32 33 34 35 36 37 38 39 40 41 42 43 44 45 46 47 48 49 50

000
ASUS42 KCHS 271312
RWRCHS

REGIONAL WEATHER ROUNDUP
NATIONAL WEATHER SERVICE CHARLESTON SC
900 AM EDT SAT MAY 27 2017

NOTE: "FAIR" INDICATES FEW OR NO CLOUDS BELOW 12,000 FEET WITH NO
SIGNIFICANT WEATHER AND/OR OBSTRUCTIONS TO VISIBILITY.

NOT ALL STATIONS ARE QUALITY CONTROLLED. USE DATA WITH CAUTION...
ESPECIALLY DEWPOINT OBSERVATIONS.

SCZ027-030-031-034>040-042>050-271400-
...SOUTHEAST SOUTH CAROLINA...

CITY           SKY/WX    TMP DP  RH WIND       PRES   REMARKS
N CHARLESTON   SUNNY     76  61  59 W8        30.03S
WATERFRONT PRK   N/A     75  64  68 VRB3      30.01S
JOHNS ISLAND   FAIR      77  64  65 SW6       30.04R
PINOPOLIS        N/A     72  63  73 SW6       29.94R
MONCKS CORNER  FAIR      73  61  64 SW3       30.02S
SUMMERVILLE    FAIR      72  63  73 CALM      30.03S
BEAUFORT MCAS  SUNNY     76  64  66 SW12      30.04S
BEAUFORT ARPT  FAIR      75  63  64 SW7       30.04S
HILTON HEAD IS NOT AVBL
WALTERBORO     SUNNY     73  63  68 W6        30.04S
ALLENDALE      FAIR      75  63  64 SW5       30.02S

...SOUTHERN MIDLANDS AND PEE DEE...

CITY           SKY/WX    TMP DP  RH WIND       PRES   REMARKS
GEORGETOWN     FAIR      73  63  68 W6        30.02S
KINGSTREE      FAIR      73  61  64 S5        30.00S
ORANGEBURG     SUNNY     74  64  71 SW7       30.01S
BARNWELL       FAIR      77  66  69 SW6       30.02S
AIKEN          FAIR      72  63  73 SW7       30.06R
MANNING        FAIR      73  66  78 SW13G18   30.00F
COLUMBIA       MOSUNNY   81  64  56 W9        29.98S
SUMTER         SUNNY     76  63  63 SW8       29.97S
FLORENCE       SUNNY     73  63  70 VRB7      29.99S
MYRTLE BEACH   SUNNY     75  63  64 W8        30.01R
N MYRTLE BEACH SUNNY     76  62  62 W5        29.99S

$$

GAZ063-065-086>088-099>101-113>116-118-119-134>141-150-271400-
...SOUTHEAST GEORGIA...

CITY           SKY/WX    TMP DP  RH WIND       PRES   REMARKS
SAVANNAH ARPT  MOSUNNY   76  60  57 W5        30.05S
HUNTER AAF     SUNNY     75  67  77 CALM      30.03S
FORT STEWART   SUNNY     74  62  66 W8        30.04S
STATESBORO     SUNNY     74  64  71 W5        30.04F
SYLVANIA       SUNNY     73  65  74 CALM      30.05S
CLAXTON        FAIR      74  69  86 SW3       30.05F

...CSRA...CENTRAL AND FAR SOUTHEAST GEORGIA...

CITY           SKY/WX    TMP DP  RH WIND       PRES   REMARKS
THOMSON        SUNNY     74  64  69 NW5       30.08S
AUGUSTA-BUSH   SUNNY     77  64  64 W7        30.02S
AUGUSTA-DANIEL SUNNY     78  61  55 W6        30.03S
SWAINSBORO     FAIR      72  64  78 W5        30.06S
VIDALIA        SUNNY     73  64  73 W5        30.07S
EASTMAN        FAIR      73  58  57 W3        30.09S
HAZLEHURST     FAIR      75  67  75 W5        30.06S
ALMA           SUNNY     74  64  71 W5        30.07S
WAYCROSS       SUNNY     77  68  73 NW6       30.07S
JESUP          FAIR      73  63  68 NW7       30.07S
BAXLEY         FAIR      73  70  88 CALM      30.07S
BRUNSWICK      SUNNY     73  68  83 W5        30.08S
SAINT SIMONS   LGT RAIN  75  65  70 W7        30.06F

$$

SCZ027-028-034-036>038-045-046-048>050-GAZ119-141-271400-
...LAKE AND SUPPLEMENTAL COASTAL OBSERVATIONS...

STATION/POSITION TIME  TEMP    WIND        PRES    WAVE   SWELL
                       AIR SEA DIR/SP/G            HT/PER HT/PER/DIR
                 (UTC) (F)     (DEG/KT/KT) (MB)    (FT/S) (FT/S/D)
WINYAH BAY       1145   71     240/  3     1016.0
LAKE MURRAY      1220   74     270/  8/  9 1014.6F
ACE BASIN NERRS  1145   71        CALM     1017.0
FORT PULASKI     1248   75     260/  4/  7 1018.0R
SAPELO ISLAND    1200   70        CALM     1018.0

$$

ANZ835-935-AMZ111-154-330-350-352-354-370-450-454-472-271400-
...C-MAN AND BUOY OBSERVATIONS...

STATION/POSITION TIME  TEMP    WIND        PRES    WAVE   SWELL
                       AIR SEA DIR/SP/G            HT/PER HT/PER/DIR
                 (UTC) (F)     (DEG/KT/KT) (MB)    (FT/S) (FT/S/D)
BUOY 41004       1250   75 74  230/ 12/ 14 1016.8R   3/ 7   2/140/ 7
BUOY 41008       1150   75 77  260/ 10/ 12 1017.4    3/ 7   2/ 80/ 7
FOLLY BEACH CMAN 1200   74     240/  5/  7 1017.4R
CAPERS NEARSHORE 1208   80 76  250/ 10/ 14 1016.5R
FRIPP NEARSHORE  1208   77 76  230/ 12/ 14 1016.9R


STATION/POSITION TIME  TEMP    WIND        PRES    WAVE   SWELL
                       AIR SEA DIR/SP/G            HT/PER HT/PER/DIR
                 (UTC) (F)     (DEG/KT/KT) (MB)    (FT/S) (FT/S/D)
5E ST. MARYS GA  1230      78                N/A     2/ 7
FRYING PAN BUOY  1250   74 75  240/ 12/ 14 1016.0R   3/ 6   2/160/ 6
BUOY 41025       1250   76 76  240/ 10/ 12 1014.5R   4/ 8   3/150/ 8
CAPE LOOKOUT NC  1200   74     230/  6/  8 1014.7R
BUOY 41002       1250   76 77  270/ 10/ 12 1017.3R   4/ 6   3/210/ 6
BUOY 41010       1250   79 79  270/  2/  2 1019.0R   2/ 8   2/ 90/ 8
ST AUGUSTINE FL  1300   73 76  350/  5/  6 1019.8R


$$




USA.gov is the U.S. government's official web portal to all federal, state and local government web resources and services.